Location: Limoges
(45.8354°N, 1.2645°E)
Time: 20:10:52
(UTC+02:00)

Vanguard 2 Rocket - Pass Details

Date: 24 February 2024
Orbit: 555 x 3307 km, 32.9° (Epoch: 11 April)

Event Time Altitude Azimuth Distance (km) Brightness Sun altitude
Rises 22:20:19 0° 274° (W) 6,616 12.0 -38.9°
Reaches altitude 10° 22:26:14 10° 260° (W) 5,927 11.4 -39.8°
Maximum altitude 22:38:05 20° 221° (SW) 5,380 10.7 -41.5°
Enters shadow 22:47:01 15° 192° (SSW) 5,786 10.7 -42.7°
